BAW302 EGLL-LFPG

Flight info

Callsign BAW302
Flight time 0h 54m
Altitude 25000
Route MODMI1J MODMI M185 MID UL612 BOGNA DCT HARDY UM605 BIBAX BIBAX9W
Aircraft A320/M-SDE3FGIJ1KRWXY/S

Departure

Time 2026-05-04 11:20
Airport London Heathrow Airport (EGLL)

Arrival

Time 2026-05-04 12:14
Airport Charles de Gaulle International Airport (LFPG)
Time Latitude Longitude Altitude Speed Heading
2026-05-04 10:32 51.46929 -0.48788 89 ft 0 kts 359°
2026-05-04 11:05 51.46877 -0.48843 85 ft 0 kts 90°
2026-05-04 11:08 51.46877 -0.48832 87 ft 2 kts 90°
2026-05-04 11:10 51.46713 -0.48470 85 ft 10 kts 180°
2026-05-04 11:12 51.46657 -0.47376 81 ft 17 kts 90°
2026-05-04 11:12 51.46657 -0.47182 85 ft 18 kts 90°
2026-05-04 11:12 51.46658 -0.47012 86 ft 14 kts 90°
2026-05-04 11:12 51.46660 -0.46868 90 ft 13 kts 88°
2026-05-04 11:13 51.46660 -0.46722 92 ft 14 kts 91°
2026-05-04 11:13 51.46660 -0.46553 91 ft 16 kts 90°
2026-05-04 11:13 51.46661 -0.46354 87 ft 19 kts 90°
2026-05-04 11:13 51.46660 -0.46142 84 ft 19 kts 90°
2026-05-04 11:14 51.46662 -0.45935 82 ft 17 kts 90°
2026-05-04 11:14 51.46663 -0.45728 81 ft 17 kts 90°
2026-05-04 11:14 51.46664 -0.45539 82 ft 17 kts 90°
2026-05-04 11:16 51.46667 -0.44400 86 ft 18 kts 89°
2026-05-04 11:16 51.46667 -0.44202 83 ft 13 kts 90°
2026-05-04 11:16 51.46667 -0.44057 82 ft 13 kts 90°
2026-05-04 11:17 51.46668 -0.43930 82 ft 8 kts 88°
2026-05-04 11:17 51.46650 -0.43838 84 ft 10 kts 137°
2026-05-04 11:19 51.46495 -0.43913 84 ft 0 kts 263°
2026-05-04 11:19 51.46495 -0.43916 82 ft 2 kts 263°
2026-05-04 11:19 51.46493 -0.44146 83 ft 52 kts 270°
2026-05-04 11:19 51.46493 -0.45131 87 ft 121 kts 269°
2026-05-04 11:20 51.46524 -0.46774 164 ft 167 kts 276°
2026-05-04 11:20 51.46614 -0.48596 868 ft 164 kts 276°
2026-05-04 11:20 51.46657 -0.50452 1502 ft 171 kts 271°
2026-05-04 11:20 51.46579 -0.52460 1862 ft 192 kts 258°
2026-05-04 11:22 51.37600 -0.60038 5915 ft 270 kts 161°
2026-05-04 11:22 51.35839 -0.59033 5971 ft 268 kts 161°
2026-05-04 11:23 51.34089 -0.58024 5972 ft 268 kts 161°
2026-05-04 11:23 51.32333 -0.57021 5981 ft 268 kts 161°
2026-05-04 11:24 51.21368 -0.57358 6873 ft 273 kts 191°
2026-05-04 11:25 51.19505 -0.57963 7778 ft 274 kts 192°
2026-05-04 11:25 51.17632 -0.58568 8654 ft 276 kts 192°
2026-05-04 11:25 51.15742 -0.59174 9529 ft 278 kts 192°
2026-05-04 11:26 51.11836 -0.60427 10536 ft 306 kts 192°
2026-05-04 11:27 50.96779 -0.53298 14669 ft 355 kts 147°
2026-05-04 11:28 50.94723 -0.51109 15287 ft 357 kts 147°
2026-05-04 11:28 50.92651 -0.48905 15903 ft 360 kts 147°
2026-05-04 11:28 50.90563 -0.46689 16499 ft 362 kts 147°
2026-05-04 11:28 50.88460 -0.44460 17119 ft 365 kts 147°
2026-05-04 11:29 50.86339 -0.42214 17754 ft 367 kts 147°
2026-05-04 11:29 50.84207 -0.39955 18401 ft 369 kts 147°
2026-05-04 11:29 50.82065 -0.37687 18963 ft 372 kts 147°
2026-05-04 11:29 50.79906 -0.35403 19527 ft 375 kts 148°
2026-05-04 11:31 50.66925 -0.14491 23132 ft 408 kts 118°
2026-05-04 11:33 50.58043 0.14197 25021 ft 420 kts 120°
2026-05-04 11:33 50.56756 0.18322 25017 ft 420 kts 120°
2026-05-04 11:33 50.55471 0.22443 25018 ft 420 kts 120°
2026-05-04 11:34 50.54204 0.26505 25017 ft 420 kts 120°
2026-05-04 11:34 50.52917 0.30618 25019 ft 419 kts 120°
2026-05-04 11:34 50.51627 0.34726 25019 ft 419 kts 120°
2026-05-04 11:34 50.50333 0.38838 25018 ft 419 kts 120°
2026-05-04 11:35 50.49043 0.42944 25020 ft 419 kts 120°
2026-05-04 11:35 50.47615 0.46909 25006 ft 415 kts 128°
2026-05-04 11:35 50.45823 0.50430 25000 ft 412 kts 137°
2026-05-04 11:35 50.43705 0.53422 25007 ft 408 kts 144°
2026-05-04 11:36 50.41480 0.56199 25002 ft 408 kts 144°
2026-05-04 11:36 50.39265 0.58983 25014 ft 408 kts 144°
2026-05-04 11:36 50.37054 0.61768 25021 ft 408 kts 144°
2026-05-04 11:36 50.34841 0.64554 25021 ft 408 kts 144°
2026-05-04 11:37 50.32634 0.67334 25022 ft 407 kts 144°
2026-05-04 11:37 50.30423 0.70103 25022 ft 407 kts 144°
2026-05-04 11:37 50.28207 0.72871 25022 ft 407 kts 144°
2026-05-04 11:37 50.25991 0.75638 25022 ft 407 kts 144°
2026-05-04 11:38 50.23780 0.78401 25022 ft 407 kts 144°
2026-05-04 11:38 50.21569 0.81160 25021 ft 407 kts 144°
2026-05-04 11:38 50.19354 0.83922 25021 ft 407 kts 144°
2026-05-04 11:38 50.17137 0.86683 25005 ft 406 kts 144°
2026-05-04 11:39 50.14962 0.89394 24769 ft 395 kts 144°
2026-05-04 11:39 50.12833 0.92045 24508 ft 389 kts 144°
2026-05-04 11:40 49.99641 1.05405 23052 ft 374 kts 156°
2026-05-04 11:41 49.97304 1.07169 22759 ft 373 kts 156°
2026-05-04 11:41 49.94970 1.08926 22405 ft 371 kts 155°
2026-05-04 11:41 49.92651 1.10667 22066 ft 370 kts 155°
2026-05-04 11:41 49.90338 1.12403 21729 ft 369 kts 155°
2026-05-04 11:42 49.88027 1.14136 21385 ft 368 kts 155°
2026-05-04 11:42 49.85727 1.15862 21059 ft 367 kts 155°
2026-05-04 11:42 49.83426 1.17567 20728 ft 366 kts 158°
2026-05-04 11:42 49.80989 1.18591 20399 ft 363 kts 175°
2026-05-04 11:43 49.78492 1.18752 20067 ft 354 kts 179°
2026-05-04 11:43 49.76048 1.18799 19745 ft 349 kts 180°
2026-05-04 11:43 49.73626 1.18839 19431 ft 347 kts 180°
2026-05-04 11:43 49.71208 1.18877 19113 ft 348 kts 180°
2026-05-04 11:44 49.68791 1.18913 18791 ft 347 kts 180°
2026-05-04 11:44 49.66379 1.18951 18489 ft 347 kts 180°
2026-05-04 11:44 49.63969 1.18990 18168 ft 346 kts 180°
2026-05-04 11:44 49.61566 1.19027 17816 ft 345 kts 180°
2026-05-04 11:45 49.59174 1.19063 17469 ft 342 kts 180°
2026-05-04 11:45 49.56794 1.19099 17124 ft 341 kts 180°
2026-05-04 11:45 49.54436 1.19133 16785 ft 338 kts 180°
2026-05-04 11:45 49.52092 1.19167 16448 ft 336 kts 180°
2026-05-04 11:46 49.49754 1.19194 16117 ft 335 kts 180°
2026-05-04 11:46 49.47436 1.19212 15792 ft 333 kts 180°
2026-05-04 11:46 49.45119 1.19230 15463 ft 332 kts 180°
2026-05-04 11:46 49.42819 1.19245 15141 ft 330 kts 180°
2026-05-04 11:47 49.40533 1.19260 14879 ft 329 kts 180°
2026-05-04 11:47 49.38255 1.19274 14659 ft 326 kts 180°
2026-05-04 11:47 49.36016 1.19287 14443 ft 325 kts 180°
2026-05-04 11:47 49.33729 1.19300 14224 ft 324 kts 180°
2026-05-04 11:48 49.31497 1.19604 14005 ft 322 kts 164°
2026-05-04 11:48 49.29530 1.21113 13800 ft 322 kts 141°
2026-05-04 11:48 49.28102 1.23735 13553 ft 323 kts 118°
2026-05-04 11:48 49.27477 1.27022 13313 ft 325 kts 96°
2026-05-04 11:49 49.27397 1.30483 13090 ft 325 kts 92°
2026-05-04 11:49 49.27434 1.33945 12968 ft 325 kts 88°
2026-05-04 11:49 49.27599 1.37399 12997 ft 325 kts 87°
2026-05-04 11:49 49.27776 1.40844 12999 ft 325 kts 87°
2026-05-04 11:50 49.27954 1.44288 12999 ft 325 kts 87°
2026-05-04 11:50 49.28131 1.47736 12998 ft 324 kts 87°
2026-05-04 11:50 49.28308 1.51184 12999 ft 324 kts 87°
2026-05-04 11:50 49.28485 1.54622 12996 ft 324 kts 87°
2026-05-04 11:51 49.28661 1.58068 12959 ft 323 kts 87°
2026-05-04 11:51 49.28835 1.61481 12595 ft 320 kts 87°
2026-05-04 11:51 49.29004 1.64875 12225 ft 319 kts 87°
2026-05-04 11:51 49.29170 1.68269 11866 ft 319 kts 87°
2026-05-04 11:52 49.29310 1.71642 11511 ft 317 kts 91°
2026-05-04 11:52 49.29201 1.75012 11160 ft 316 kts 95°
2026-05-04 11:52 49.29045 1.78356 10976 ft 314 kts 94°
2026-05-04 11:52 49.28893 1.81681 10989 ft 313 kts 94°
2026-05-04 11:53 49.28745 1.85006 10992 ft 313 kts 94°
2026-05-04 11:53 49.28647 1.87209 10994 ft 312 kts 94°
2026-05-04 11:53 49.28446 1.91647 10999 ft 312 kts 94°
2026-05-04 11:53 49.28293 1.94967 10999 ft 312 kts 94°
2026-05-04 11:55 49.27189 2.18130 10996 ft 312 kts 94°
2026-05-04 11:55 49.27027 2.21442 10998 ft 312 kts 94°
2026-05-04 11:56 49.26919 2.23636 10997 ft 312 kts 94°
2026-05-04 11:56 49.26758 2.26954 10997 ft 312 kts 94°
2026-05-04 11:56 49.26595 2.30262 10997 ft 312 kts 94°
2026-05-04 11:56 49.26431 2.33579 10999 ft 312 kts 94°
2026-05-04 11:57 49.26266 2.36891 10995 ft 312 kts 94°
2026-05-04 11:57 49.26101 2.40206 10996 ft 312 kts 94°
2026-05-04 11:57 49.25935 2.43523 10996 ft 312 kts 94°
2026-05-04 11:57 49.25766 2.46838 10988 ft 312 kts 94°
2026-05-04 11:58 49.25595 2.50144 10978 ft 312 kts 94°
2026-05-04 11:58 49.25300 2.53426 10885 ft 313 kts 100°
2026-05-04 11:58 49.24914 2.56684 10637 ft 310 kts 100°
2026-05-04 11:58 49.24530 2.59931 10369 ft 309 kts 100°
2026-05-04 11:59 49.24158 2.63171 9999 ft 308 kts 99°
2026-05-04 11:59 49.23788 2.66361 9694 ft 302 kts 100°
2026-05-04 11:59 49.23412 2.69465 9364 ft 297 kts 101°
2026-05-04 11:59 49.23030 2.72512 9062 ft 284 kts 101°
2026-05-04 12:00 49.22659 2.75399 8777 ft 269 kts 101°
2026-05-04 12:00 49.22305 2.78124 8514 ft 254 kts 101°
2026-05-04 12:00 49.21967 2.80721 8280 ft 245 kts 101°
2026-05-04 12:00 49.21634 2.83270 8051 ft 244 kts 101°
2026-05-04 12:01 49.21300 2.85811 7823 ft 243 kts 101°
2026-05-04 12:01 49.20965 2.88344 7586 ft 242 kts 101°
2026-05-04 12:02 49.17994 3.02611 6233 ft 236 kts 123°
2026-05-04 12:03 49.16909 3.04484 5973 ft 235 kts 136°
2026-05-04 12:03 49.15681 3.06124 5714 ft 234 kts 142°
2026-05-04 12:03 49.14352 3.07577 5459 ft 234 kts 145°
2026-05-04 12:03 49.13013 3.08975 5209 ft 232 kts 145°
2026-05-04 12:04 49.11696 3.10352 5056 ft 231 kts 146°
2026-05-04 12:04 49.10313 3.11534 4946 ft 226 kts 166°
2026-05-04 12:04 49.08784 3.11539 4859 ft 220 kts 192°
2026-05-04 12:04 49.07357 3.10753 4752 ft 218 kts 208°
2026-05-04 12:05 49.06153 3.09383 4656 ft 215 kts 221°
2026-05-04 12:05 49.05073 3.07853 4568 ft 207 kts 223°
2026-05-04 12:05 49.04074 3.06375 4479 ft 194 kts 223°
2026-05-04 12:05 49.03136 3.04981 4359 ft 182 kts 223°
2026-05-04 12:06 49.02262 3.03662 4244 ft 172 kts 229°
2026-05-04 12:06 49.01700 3.02128 4139 ft 162 kts 253°
2026-05-04 12:06 49.01544 3.00487 4067 ft 154 kts 265°
2026-05-04 12:06 49.01465 2.98876 4027 ft 152 kts 264°
2026-05-04 12:07 49.01386 2.97266 4025 ft 152 kts 265°
2026-05-04 12:07 49.01306 2.95654 4024 ft 153 kts 264°
2026-05-04 12:07 49.01225 2.94044 4023 ft 153 kts 265°
2026-05-04 12:07 49.01145 2.92431 4023 ft 153 kts 265°
2026-05-04 12:08 49.01064 2.90821 4020 ft 152 kts 265°
2026-05-04 12:08 49.00984 2.89228 3964 ft 153 kts 265°
2026-05-04 12:08 49.00903 2.87627 3834 ft 152 kts 265°
2026-05-04 12:08 49.00822 2.86031 3656 ft 151 kts 265°
2026-05-04 12:09 49.00742 2.84439 3467 ft 150 kts 265°
2026-05-04 12:09 49.00661 2.82853 3274 ft 150 kts 265°
2026-05-04 12:09 49.00580 2.81272 3071 ft 150 kts 265°
2026-05-04 12:09 49.00500 2.79695 2858 ft 149 kts 265°
2026-05-04 12:10 49.00418 2.78111 2656 ft 150 kts 265°
2026-05-04 12:10 49.00337 2.76532 2453 ft 150 kts 265°
2026-05-04 12:10 49.00256 2.74951 2253 ft 150 kts 265°
2026-05-04 12:10 49.00174 2.73375 2053 ft 149 kts 265°
2026-05-04 12:11 49.00092 2.71795 1847 ft 150 kts 265°
2026-05-04 12:11 49.00011 2.70230 1676 ft 146 kts 265°
2026-05-04 12:11 48.99930 2.68682 1450 ft 146 kts 265°
2026-05-04 12:11 48.99850 2.67140 1249 ft 146 kts 265°
2026-05-04 12:12 48.99769 2.65597 1052 ft 146 kts 265°
2026-05-04 12:12 48.99688 2.64055 847 ft 146 kts 265°
2026-05-04 12:12 48.99609 2.62517 668 ft 146 kts 266°
2026-05-04 12:12 48.99533 2.60976 477 ft 146 kts 266°
2026-05-04 12:13 48.99457 2.59467 358 ft 132 kts 264°
2026-05-04 12:14 48.99453 2.56921 354 ft 10 kts 286°
2026-05-04 12:15 48.99469 2.56833 354 ft 9 kts 285°
2026-05-04 12:15 48.99475 2.56727 354 ft 11 kts 266°
2026-05-04 12:15 48.99469 2.56621 357 ft 11 kts 265°
2026-05-04 12:15 48.99463 2.56507 354 ft 7 kts 266°
2026-05-04 12:16 48.99460 2.56424 354 ft 9 kts 267°
2026-05-04 12:16 48.99484 2.56334 359 ft 10 kts 318°
2026-05-04 12:16 48.99524 2.56310 355 ft 0 kts 351°
2026-05-04 12:17 48.99544 2.56306 354 ft 5 kts 352°
2026-05-04 12:17 48.99585 2.56300 355 ft 7 kts 356°
2026-05-04 12:17 48.99618 2.56297 357 ft 4 kts 356°
2026-05-04 12:17 48.99652 2.56292 358 ft 7 kts 354°
2026-05-04 12:18 48.99712 2.56285 354 ft 8 kts 356°
2026-05-04 12:18 48.99755 2.56279 362 ft 7 kts 355°
2026-05-04 12:18 48.99812 2.56272 354 ft 9 kts 354°
2026-05-04 12:18 48.99880 2.56294 357 ft 7 kts 30°
2026-05-04 12:19 48.99907 2.56361 357 ft 9 kts 79°
2026-05-04 12:19 48.99909 2.56436 354 ft 4 kts 88°
2026-05-04 12:19 48.99913 2.56495 357 ft 7 kts 80°
2026-05-04 12:19 48.99941 2.56566 354 ft 9 kts 36°
2026-05-04 12:20 48.99988 2.56579 361 ft 5 kts
2026-05-04 12:20 49.00030 2.56573 357 ft 7 kts 353°
2026-05-04 12:20 49.00033 2.56573 358 ft 1 kts 354°
2026-05-04 12:20 49.00053 2.56570 354 ft 4 kts 354°
2026-05-04 12:21 49.00087 2.56550 356 ft 6 kts 326°
2026-05-04 12:21 49.00104 2.56512 354 ft 4 kts 292°
2026-05-04 12:21 49.00132 2.56477 357 ft 6 kts 335°
2026-05-04 12:21 49.00154 2.56462 362 ft 4 kts 339°
2026-05-04 12:22 49.00174 2.56453 354 ft 1 kts 342°
2026-05-04 12:22 49.00187 2.56446 358 ft 3 kts 339°
2026-05-04 12:22 49.00198 2.56438 358 ft 1 kts 338°
2026-05-04 12:22 49.00201 2.56437 358 ft 0 kts 338°